KKINGSHI2 Weather Reports


time (UTC)temp
C
wind
direction
speed
KPH
gust
KPH
rain 1hr
cm
rain 24hr
cm
rain mn
cm
humidity
%
barometer
mb
20260507190031 28 67 11.3 20.9 0.00 0.53 0.53 73 1018.0
20260507184522 29 100 8.0 24.1 0.00 0.53 0.53 74 1018.1
20260507183034 30 101 9.7 20.9 0.00 0.53 0.53 73 1018.1
20260507181520 29 111 9.7 22.5 0.00 0.53 0.53 73 1018.2
20260507180019 30 103 11.3 22.5 0.00 0.53 0.53 73 1018.5
20260507174519 30 150 11.3 20.9 0.00 0.53 0.53 71 1018.6
20260507173019 30 76 9.7 22.5 0.00 0.53 0.53 71 1018.9
20260507171517 30 80 9.7 22.5 0.00 0.53 0.53 75 1019.0
20260507170016 29 93 11.3 20.9 0.00 0.53 0.53 73 1019.2
20260507164516 30 89 8.0 22.5 0.00 0.53 0.53 73 1019.3
20260507163016 30 73 8.0 24.1 0.00 0.53 0.53 71 1019.4
20260507161518 30 110 6.4 17.7 0.00 0.53 0.53 71 1019.4
20260507160026 30 128 9.7 22.5 0.00 0.53 0.53 71 1019.7
20260507154513 30 130 9.7 20.9 0.00 0.53 0.53 72 1019.8
20260507153017 30 146 9.7 22.5 0.00 0.53 0.53 72 1019.9
20260507151509 30 81 11.3 24.1 0.00 0.53 0.53 72 1020.1
20260507150008 30 148 11.3 19.3 0.00 0.53 0.53 73 1020.3
20260507144517 30 135 11.3 22.5 0.00 0.53 0.53 72 1020.5
20260507143007 30 87 6.4 27.4 0.00 0.53 0.53 73 1020.3
20260507141504 30 104 9.7 19.3 0.00 0.53 0.53 73 1020.2
20260507140001 29 109 11.3 20.9 0.00 0.53 0.53 75 1020.3
20260507134609 28 93 6.4 19.3 0.00 0.53 0.53 77 1020.0
20260507133108 29 140 6.4 16.1 0.00 0.53 0.53 73 1020.0
20260507133003 29 138 8.0 17.7 0.00 0.53 0.53 73 1020.0
20260507131600 28 150 9.7 19.3 0.00 0.53 0.53 74 1019.9
20260507130052 27 93 4.8 14.5 0.00 0.53 0.53 81 1019.7
20260507124553 27 42 6.4 14.5 0.00 0.53 0.53 82 1019.7
20260507123052 26 115 1.6 12.9 0.00 0.53 0.53 82 1019.6
20260507121549 26 109 1.6 11.3 0.00 0.53 0.53 83 1019.5
20260507120048 26 150 4.8 17.7 0.00 0.53 0.53 83 1019.5
20260507114554 26 164 8.0 12.9 0.00 0.53 0.53 85 1019.4
20260507113050 26 139 8.0 12.9 0.00 0.53 0.53 85 1019.3
20260507111556 26 145 1.6 14.5 0.00 0.53 0.53 84 1019.2
20260507110042 26 133 4.8 14.5 0.00 0.53 0.53 87 1019.0
20260507104541 25 171 4.8 12.9 0.00 0.53 0.53 88 1019.0
20260507103040 25 161 4.8 16.1 0.00 0.53 0.53 88 1018.9
20260507101543 25 157 4.8 14.5 0.00 0.53 0.53 89 1018.9
20260507100040 24 156 3.2 11.3 0.00 0.53 0.53 90 1018.8
20260507094541 24 146 1.6 12.9 0.00 0.53 0.53 90 1018.7
20260507093044 24 147 1.6 11.3 0.00 0.53 0.53 91 1018.8
20260507091539 24 158 0.0 14.5 0.00 0.53 0.53 91 1018.6
20260507090037 24 180 0.0 12.9 0.00 0.53 0.53 92 1018.6
20260507084540 24 171 3.2 11.3 0.00 0.53 0.53 92 1018.6
20260507083038 24 175 0.0 9.7 0.00 0.53 0.53 92 1018.5
20260507081537 24 169 1.6 9.7 0.00 0.53 0.53 92 1018.3
20260507080036 24 173 3.2 11.3 0.05 0.53 0.53 93 1018.4
20260507074533 24 109 4.8 19.3 0.10 0.53 0.53 93 1018.3
20260507073031 24 165 6.4 14.5 0.10 0.53 0.53 93 1018.4
20260507071529 24 164 3.2 11.3 0.18 0.53 0.53 93 1018.7
20260507070026 24 155 4.8 14.5 0.23 0.48 0.48 92 1018.8
20260507064526 24 155 4.8 12.9 0.43 0.43 0.43 92 1018.9
20260507063024 24 140 0.0 11.3 0.43 0.43 0.43 92 1018.9
20260507061523 24 206 4.8 12.9 0.36 0.36 0.36 92 1019.0
20260507060018 24 207 9.7 17.7 0.23 0.23 0.23 89 1019.3
20260507054516 25 192 6.4 16.1 0.00 0.00 0.00 88 1019.4
20260507053013 25 98 4.8 16.1 0.00 0.00 0.00 86 1019.5
20260507051512 26 80 8.0 19.3 0.00 0.00 0.00 87 1019.8
20260507050009 26 126 6.4 16.1 0.00 0.00 0.00 86 1020.1
20260507044507 26 84 8.0 19.3 0.00 0.00 0.00 87 1020.4
20260507043005 26 92 9.7 19.3 0.00 0.00 0.00 87 1020.5
20260507041508 26 117 4.8 16.1 0.00 0.00 0.00 88 1020.5
20260507040101 26 77 8.0 20.9 0.00 0.00 0.00 87 1020.6
20260507034607 26 103 8.0 20.9 0.00 0.00 0.00 87 1020.7
20260507033055 26 80 6.4 16.1 0.00 0.00 0.00 86 1020.8
20260507031552 26 113 3.2 19.3 0.00 0.00 0.00 86 1020.9
20260507030056 26 101 6.4 14.5 0.00 0.00 0.00 86 1020.9
20260507024549 26 84 4.8 16.1 0.00 0.00 0.00 86 1021.1
20260507023151 26 89 3.2 14.5 0.00 0.00 0.00 86 1021.0
20260507021552 26 82 0.0 16.1 0.00 0.00 0.00 86 1021.0
20260507020047 26 103 4.8 17.7 0.00 0.00 0.00 86 1020.9
20260507014557 26 138 6.4 17.7 0.00 0.00 0.00 86 1020.7
20260507013107 26 107 6.4 14.5 0.00 0.00 0.00 87 1020.4
20260507011546 26 101 8.0 16.1 0.00 0.00 0.00 87 1020.4
20260507010045 26 150 3.2 14.5 0.00 0.00 0.00 87 1020.2
20260507004545 26 186 1.6 14.5 0.00 0.00 0.00 87 1020.0
20260507003044 25 160 4.8 11.3 0.00 0.00 0.00 87 1020.0
20260507001600 25 160 1.6 9.7 0.00 0.00 0.00 87 1019.9
20260507000042 26 161 0.0 8.0 0.00 0.00 0.00 87 1019.7
20260506234542 26 161 4.8 11.3 0.00 0.00 0.00 87 1019.4
20260506233045 26 162 4.8 14.5 0.00 0.00 0.00 86 1019.3
20260506231547 26 159 4.8 14.5 0.00 0.00 0.00 86 1019.3
20260506230040 26 142 3.2 11.3 0.00 0.00 0.00 85 1019.2
20260506224540 26 162 1.6 14.5 0.00 0.00 0.00 84 1019.0
20260506223049 26 115 1.6 11.3 0.00 0.00 0.00 84 1018.9
20260506221538 26 165 9.7 14.5 0.00 0.00 0.00 83 1018.7
20260506220038 27 91 4.8 16.1 0.00 0.00 0.00 83 1018.8
20260506214540 27 139 4.8 12.9 0.00 0.00 0.00 82 1018.7
20260506213038 27 111 6.4 17.7 0.00 0.00 0.00 82 1018.5
20260506211535 27 108 6.4 20.9 0.00 0.00 0.00 83 1018.7
20260506210039 27 114 8.0 17.7 0.00 0.00 0.00 81 1018.6
20260506204535 27 121 8.0 22.5 0.00 0.00 0.00 80 1018.5
20260506203042 27 117 9.7 19.3 0.00 0.00 0.00 83 1018.4
20260506201533 27 83 11.3 22.5 0.00 0.00 0.00 82 1018.4
20260506200035 27 98 9.7 20.9 0.00 0.00 0.00 82 1018.6
20260506194530 27 96 11.3 25.7 0.00 0.00 0.00 83 1018.6
20260506193029 27 62 9.7 22.5 0.00 0.00 0.00 82 1018.6
20260506191532 27 121 9.7 22.5 0.00 0.00 0.00 81 1018.8